User: anonymous   Login
Location: Krasnoyarskiy Pitomnik
(51.1333°N, 71.6167°E)
Time: 15:57:15
(UTC+00:00)
Language:

PAYLOAD A - Orbit

View from above orbital plane
View from above orbital plane
View from above satellite
View from above satellite

Ground track
Ground track

The orbit data is extracted from the following two-line orbital elements,

1 27840U 03031A   22021.89068987  .00000017  00000-0  18784-4 0  9990
2 27840  98.4057 350.0821 0099299 107.5098 253.6971 14.38979400974775
Epoch (UTC): 21 January 2022 21:22:35
Eccentricity: 0.0099299
inclination: 98.4057°
perigee height: 691 km
apogee height: 833 km
right ascension of ascending node: 350.0821°
argument of perigee: 107.5098°
revolutions per day: 14.38979400
mean anomaly at epoch: 253.6971°
orbit number at epoch: 97477

The dashed part of the orbit path shows where the satellite is in the earth's shadow,  

DLR